<?xml version="1.0" encoding="UTF-8" standalone="no" ?>
<gpx xmlns="http://www.topografix.com/GPX/1/1" xmlns:xsi="http://www.w3.org/2001/XMLSchema-instance" xsi:schemaLocation="http://www.topografix.com/GPX/1/1 http://www.topografix.com/GPX/1/1/gpx.xsd" version="1.1" creator="VisuGPX - https://www.visugpx.com">
  <metadata>
    <name>l\'arbre et le cep</name>
    <desc><![CDATA[Randonnée pédestre en Albret de 14km. Départ de Sainte Maure de Peyriac]]></desc>
  </metadata>
  <trk>
    <name><![CDATA[SteMaurePeyriac2009]]></name>
    <trkseg>
      <trkpt lat="44.01272" lon="0.15276">
        <ele>163</ele>
        <time>2004-08-24T16:36:28Z</time>
      </trkpt>
      <trkpt lat="44.01243" lon="0.15284">
        <ele>163</ele>
        <time>2004-08-24T16:36:28Z</time>
      </trkpt>
      <trkpt lat="44.01189" lon="0.15289">
        <ele>163</ele>
        <time>2004-08-24T16:36:28Z</time>
      </trkpt>
      <trkpt lat="44.01135" lon="0.15299">
        <ele>163</ele>
        <time>2004-08-24T16:36:28Z</time>
      </trkpt>
      <trkpt lat="44.01123" lon="0.15335">
        <ele>163</ele>
        <time>2004-08-24T16:36:28Z</time>
      </trkpt>
      <trkpt lat="44.01117" lon="0.15367">
        <ele>163</ele>
        <time>2004-08-24T16:36:28Z</time>
      </trkpt>
      <trkpt lat="44.01108" lon="0.15418">
        <ele>163</ele>
        <time>2004-08-24T16:36:28Z</time>
      </trkpt>
      <trkpt lat="44.01099" lon="0.15465">
        <ele>163</ele>
        <time>2004-08-24T16:36:28Z</time>
      </trkpt>
      <trkpt lat="44.01089" lon="0.15506">
        <ele>163</ele>
        <time>2004-08-24T16:36:28Z</time>
      </trkpt>
      <trkpt lat="44.01061" lon="0.15579">
        <ele>163</ele>
        <time>2004-08-24T16:36:28Z</time>
      </trkpt>
      <trkpt lat="44.01048" lon="0.15622">
        <ele>163</ele>
        <time>2004-08-24T16:36:28Z</time>
      </trkpt>
      <trkpt lat="44.01014" lon="0.15735">
        <ele>163</ele>
        <time>2004-08-24T16:36:28Z</time>
      </trkpt>
      <trkpt lat="44.01008" lon="0.15759">
        <ele>163</ele>
        <time>2004-08-24T16:36:28Z</time>
      </trkpt>
      <trkpt lat="44.00994" lon="0.15803">
        <ele>163</ele>
      </trkpt>
      <trkpt lat="44.00974" lon="0.15861">
        <ele>162</ele>
        <time>2004-08-24T16:36:28Z</time>
      </trkpt>
      <trkpt lat="44.00972" lon="0.15888">
        <ele>161</ele>
      </trkpt>
      <trkpt lat="44.00962" lon="0.15939">
        <ele>160</ele>
        <time>2004-08-24T16:36:28Z</time>
      </trkpt>
      <trkpt lat="44.00953" lon="0.15988">
        <ele>159</ele>
        <time>2004-08-24T16:36:28Z</time>
      </trkpt>
      <trkpt lat="44.00948" lon="0.16019">
        <ele>157</ele>
        <time>2004-08-24T16:36:28Z</time>
      </trkpt>
      <trkpt lat="44.00936" lon="0.16067">
        <ele>155</ele>
      </trkpt>
      <trkpt lat="44.00923" lon="0.16119">
        <ele>153</ele>
      </trkpt>
      <trkpt lat="44.00903" lon="0.16191">
        <ele>149</ele>
      </trkpt>
      <trkpt lat="44.00881" lon="0.16271">
        <ele>145</ele>
        <time>2004-08-24T16:36:28Z</time>
      </trkpt>
      <trkpt lat="44.0084" lon="0.16323">
        <ele>141</ele>
        <time>2004-08-24T16:36:28Z</time>
      </trkpt>
      <trkpt lat="44.00818" lon="0.16373">
        <ele>139</ele>
      </trkpt>
      <trkpt lat="44.0079" lon="0.16434">
        <ele>138</ele>
      </trkpt>
      <trkpt lat="44.00772" lon="0.16473">
        <ele>137</ele>
      </trkpt>
      <trkpt lat="44.00757" lon="0.16507">
        <ele>136</ele>
      </trkpt>
      <trkpt lat="44.00741" lon="0.16541">
        <ele>135</ele>
      </trkpt>
      <trkpt lat="44.00721" lon="0.16583">
        <ele>134</ele>
        <time>2004-08-24T16:36:28Z</time>
      </trkpt>
      <trkpt lat="44.00717" lon="0.16597">
        <ele>133</ele>
        <time>2004-08-24T16:36:28Z</time>
      </trkpt>
      <trkpt lat="44.00714" lon="0.16637">
        <ele>131</ele>
        <time>2004-08-24T16:36:28Z</time>
      </trkpt>
      <trkpt lat="44.00701" lon="0.16664">
        <ele>130</ele>
        <time>2004-08-24T16:36:28Z</time>
      </trkpt>
      <trkpt lat="44.00684" lon="0.1669">
        <ele>129</ele>
      </trkpt>
      <trkpt lat="44.00657" lon="0.16736">
        <ele>127</ele>
        <time>2004-08-24T16:36:28Z</time>
      </trkpt>
      <trkpt lat="44.0063" lon="0.16786">
        <ele>125</ele>
        <time>2004-08-24T16:36:28Z</time>
      </trkpt>
      <trkpt lat="44.00589" lon="0.16868">
        <ele>121</ele>
        <time>2004-08-24T16:36:28Z</time>
      </trkpt>
      <trkpt lat="44.00574" lon="0.16887">
        <ele>120</ele>
        <time>2004-08-24T16:36:28Z</time>
      </trkpt>
      <trkpt lat="44.00539" lon="0.16903">
        <ele>120</ele>
        <time>2004-08-24T16:36:28Z</time>
      </trkpt>
      <trkpt lat="44.00503" lon="0.1692">
        <ele>120</ele>
        <time>2004-08-24T16:36:28Z</time>
      </trkpt>
      <trkpt lat="44.00477" lon="0.16936">
        <ele>119</ele>
        <time>2004-08-24T16:36:28Z</time>
      </trkpt>
      <trkpt lat="44.00446" lon="0.1697">
        <ele>118</ele>
        <time>2004-08-24T16:36:28Z</time>
      </trkpt>
      <trkpt lat="44.00416" lon="0.16999">
        <ele>116</ele>
        <time>2004-08-24T16:36:28Z</time>
      </trkpt>
      <trkpt lat="44.00395" lon="0.17024">
        <ele>115</ele>
        <time>2004-08-24T16:36:28Z</time>
      </trkpt>
      <trkpt lat="44.00386" lon="0.17041">
        <ele>114</ele>
        <time>2004-08-24T16:36:28Z</time>
      </trkpt>
      <trkpt lat="44.0037" lon="0.1706">
        <ele>114</ele>
        <time>2004-08-24T16:36:28Z</time>
      </trkpt>
      <trkpt lat="44.00358" lon="0.17069">
        <ele>113</ele>
        <time>2004-08-24T16:36:28Z</time>
      </trkpt>
      <trkpt lat="44.00335" lon="0.17071">
        <ele>113</ele>
        <time>2004-08-24T16:36:28Z</time>
      </trkpt>
      <trkpt lat="44.00309" lon="0.17064">
        <ele>113</ele>
        <time>2004-08-24T16:36:28Z</time>
      </trkpt>
      <trkpt lat="44.00287" lon="0.17068">
        <ele>113</ele>
        <time>2004-08-24T16:36:28Z</time>
      </trkpt>
      <trkpt lat="44.00276" lon="0.17083">
        <ele>111</ele>
        <time>2004-08-24T16:36:28Z</time>
      </trkpt>
      <trkpt lat="44.00262" lon="0.17134">
        <ele>107</ele>
        <time>2004-08-24T16:36:28Z</time>
      </trkpt>
      <trkpt lat="44.00249" lon="0.17163">
        <ele>105</ele>
        <time>2004-08-24T16:36:28Z</time>
      </trkpt>
      <trkpt lat="44.00225" lon="0.17176">
        <ele>104</ele>
        <time>2004-08-24T16:36:28Z</time>
      </trkpt>
      <trkpt lat="44.00215" lon="0.17183">
        <ele>103</ele>
      </trkpt>
      <trkpt lat="44.00199" lon="0.17187">
        <ele>103</ele>
        <time>2004-08-24T16:36:28Z</time>
      </trkpt>
      <trkpt lat="44.00168" lon="0.17191">
        <ele>102</ele>
        <time>2004-08-24T16:36:28Z</time>
      </trkpt>
      <trkpt lat="44.00154" lon="0.17189">
        <ele>101</ele>
      </trkpt>
      <trkpt lat="44.00141" lon="0.17184">
        <ele>101</ele>
        <time>2004-08-24T16:36:28Z</time>
      </trkpt>
      <trkpt lat="44.0011" lon="0.17171">
        <ele>100</ele>
        <time>2004-08-24T16:36:28Z</time>
      </trkpt>
      <trkpt lat="44.00085" lon="0.17152">
        <ele>100</ele>
      </trkpt>
      <trkpt lat="44.00062" lon="0.17139">
        <ele>102</ele>
      </trkpt>
      <trkpt lat="44.00024" lon="0.17119">
        <ele>108</ele>
      </trkpt>
      <trkpt lat="43.9999" lon="0.17101">
        <ele>112</ele>
        <time>2004-08-24T16:36:28Z</time>
      </trkpt>
      <trkpt lat="43.99972" lon="0.17096">
        <ele>113</ele>
        <time>2004-08-24T16:36:28Z</time>
      </trkpt>
      <trkpt lat="43.9995" lon="0.17084">
        <ele>115</ele>
        <time>2004-08-24T16:36:28Z</time>
      </trkpt>
      <trkpt lat="43.99938" lon="0.17082">
        <ele>116</ele>
        <time>2004-08-24T16:36:28Z</time>
      </trkpt>
      <trkpt lat="43.99922" lon="0.17074">
        <ele>116</ele>
        <time>2004-08-24T16:36:28Z</time>
      </trkpt>
      <trkpt lat="43.99912" lon="0.1707">
        <ele>117</ele>
      </trkpt>
      <trkpt lat="43.999" lon="0.17063">
        <ele>117</ele>
        <time>2004-08-24T16:36:28Z</time>
      </trkpt>
      <trkpt lat="43.99901" lon="0.17014">
        <ele>119</ele>
        <time>2004-08-24T16:36:28Z</time>
      </trkpt>
      <trkpt lat="43.99899" lon="0.16993">
        <ele>119</ele>
      </trkpt>
      <trkpt lat="43.99894" lon="0.1691">
        <ele>120</ele>
      </trkpt>
      <trkpt lat="43.99884" lon="0.16788">
        <ele>121</ele>
        <time>2004-08-24T16:36:28Z</time>
      </trkpt>
      <trkpt lat="43.99876" lon="0.16646">
        <ele>122</ele>
      </trkpt>
      <trkpt lat="43.99876" lon="0.16629">
        <ele>122</ele>
        <time>2004-08-24T16:36:28Z</time>
      </trkpt>
      <trkpt lat="43.99878" lon="0.16585">
        <ele>122</ele>
        <time>2004-08-24T16:36:28Z</time>
      </trkpt>
      <trkpt lat="43.99875" lon="0.16562">
        <ele>123</ele>
      </trkpt>
      <trkpt lat="43.99869" lon="0.16489">
        <ele>126</ele>
      </trkpt>
      <trkpt lat="43.99862" lon="0.16409">
        <ele>129</ele>
      </trkpt>
      <trkpt lat="43.99857" lon="0.16381">
        <ele>130</ele>
        <time>2004-08-24T16:36:28Z</time>
      </trkpt>
      <trkpt lat="43.99848" lon="0.16356">
        <ele>131</ele>
        <time>2004-08-24T16:36:28Z</time>
      </trkpt>
      <trkpt lat="43.9982" lon="0.16334">
        <ele>131</ele>
        <time>2004-08-24T16:36:28Z</time>
      </trkpt>
      <trkpt lat="43.99793" lon="0.16311">
        <ele>131</ele>
      </trkpt>
      <trkpt lat="43.99779" lon="0.16292">
        <ele>131</ele>
        <time>2004-08-24T16:36:28Z</time>
      </trkpt>
      <trkpt lat="43.99783" lon="0.16231">
        <ele>135</ele>
      </trkpt>
      <trkpt lat="43.99797" lon="0.1618">
        <ele>140</ele>
      </trkpt>
      <trkpt lat="43.99817" lon="0.16114">
        <ele>145</ele>
        <time>2004-08-24T16:36:28Z</time>
      </trkpt>
      <trkpt lat="43.99808" lon="0.16098">
        <ele>146</ele>
        <time>2004-08-24T16:36:28Z</time>
      </trkpt>
      <trkpt lat="43.99796" lon="0.1607">
        <ele>147</ele>
        <time>2004-08-24T16:36:28Z</time>
      </trkpt>
      <trkpt lat="43.99786" lon="0.16049">
        <ele>148</ele>
      </trkpt>
      <trkpt lat="43.99776" lon="0.1603">
        <ele>148</ele>
        <time>2004-08-24T16:36:28Z</time>
      </trkpt>
      <trkpt lat="43.99759" lon="0.16003">
        <ele>148</ele>
        <time>2004-08-24T16:36:28Z</time>
      </trkpt>
      <trkpt lat="43.99752" lon="0.15981">
        <ele>149</ele>
      </trkpt>
      <trkpt lat="43.99748" lon="0.15946">
        <ele>150</ele>
        <time>2004-08-24T16:36:28Z</time>
      </trkpt>
      <trkpt lat="43.9975" lon="0.15907">
        <ele>152</ele>
        <time>2004-08-24T16:36:28Z</time>
      </trkpt>
      <trkpt lat="43.99753" lon="0.15869">
        <ele>153</ele>
        <time>2004-08-24T16:36:28Z</time>
      </trkpt>
      <trkpt lat="43.99749" lon="0.15826">
        <ele>153</ele>
        <time>2004-08-24T16:36:28Z</time>
      </trkpt>
      <trkpt lat="43.9974" lon="0.15803">
        <ele>152</ele>
        <time>2004-08-24T16:36:28Z</time>
      </trkpt>
      <trkpt lat="43.99729" lon="0.1578">
        <ele>151</ele>
        <time>2004-08-24T16:36:28Z</time>
      </trkpt>
      <trkpt lat="43.99711" lon="0.15759">
        <ele>151</ele>
      </trkpt>
      <trkpt lat="43.99669" lon="0.1572">
        <ele>150</ele>
      </trkpt>
      <trkpt lat="43.99636" lon="0.15681">
        <ele>149</ele>
      </trkpt>
      <trkpt lat="43.99613" lon="0.15642">
        <ele>150</ele>
        <time>2004-08-24T16:36:28Z</time>
      </trkpt>
      <trkpt lat="43.99613" lon="0.15611">
        <ele>150</ele>
        <time>2004-08-24T16:36:28Z</time>
      </trkpt>
      <trkpt lat="43.99617" lon="0.15575">
        <ele>151</ele>
      </trkpt>
      <trkpt lat="43.99622" lon="0.15549">
        <ele>151</ele>
      </trkpt>
      <trkpt lat="43.9963" lon="0.15509">
        <ele>151</ele>
      </trkpt>
      <trkpt lat="43.99642" lon="0.1547">
        <ele>151</ele>
      </trkpt>
      <trkpt lat="43.99651" lon="0.15426">
        <ele>151</ele>
      </trkpt>
      <trkpt lat="43.99616" lon="0.1542">
        <ele>150</ele>
        <time>2004-08-24T16:36:28Z</time>
      </trkpt>
      <trkpt lat="43.99591" lon="0.1541">
        <ele>150</ele>
        <time>2004-08-24T16:36:28Z</time>
      </trkpt>
      <trkpt lat="43.99551" lon="0.15388">
        <ele>149</ele>
      </trkpt>
      <trkpt lat="43.99518" lon="0.15369">
        <ele>149</ele>
      </trkpt>
      <trkpt lat="43.99501" lon="0.15357">
        <ele>150</ele>
        <time>2004-08-24T16:36:28Z</time>
      </trkpt>
      <trkpt lat="43.99488" lon="0.15407">
        <ele>151</ele>
      </trkpt>
      <trkpt lat="43.99477" lon="0.15448">
        <ele>150</ele>
        <time>2004-08-24T16:36:28Z</time>
      </trkpt>
      <trkpt lat="43.99448" lon="0.1544">
        <ele>151</ele>
        <time>2004-08-24T16:36:28Z</time>
      </trkpt>
      <trkpt lat="43.99407" lon="0.15429">
        <ele>151</ele>
        <time>2004-08-24T16:36:28Z</time>
      </trkpt>
      <trkpt lat="43.9937" lon="0.15426">
        <ele>151</ele>
        <time>2004-08-24T16:36:28Z</time>
      </trkpt>
      <trkpt lat="43.99327" lon="0.15432">
        <ele>151</ele>
        <time>2004-08-24T16:36:28Z</time>
      </trkpt>
      <trkpt lat="43.99285" lon="0.15437">
        <ele>152</ele>
        <time>2004-08-24T16:36:28Z</time>
      </trkpt>
      <trkpt lat="43.9924" lon="0.15426">
        <ele>154</ele>
        <time>2004-08-24T16:36:28Z</time>
      </trkpt>
      <trkpt lat="43.99215" lon="0.15416">
        <ele>154</ele>
        <time>2004-08-24T16:36:28Z</time>
      </trkpt>
      <trkpt lat="43.99171" lon="0.15395">
        <ele>155</ele>
        <time>2004-08-24T16:36:28Z</time>
      </trkpt>
      <trkpt lat="43.99152" lon="0.15456">
        <ele>153</ele>
        <time>2004-08-24T16:36:28Z</time>
      </trkpt>
      <trkpt lat="43.99143" lon="0.15491">
        <ele>153</ele>
      </trkpt>
      <trkpt lat="43.99128" lon="0.15541">
        <ele>154</ele>
        <time>2004-08-24T16:36:28Z</time>
      </trkpt>
      <trkpt lat="43.99099" lon="0.15538">
        <ele>157</ele>
      </trkpt>
      <trkpt lat="43.99069" lon="0.15536">
        <ele>158</ele>
        <time>2004-08-24T16:36:28Z</time>
      </trkpt>
      <trkpt lat="43.98995" lon="0.1564">
        <ele>159</ele>
        <time>2004-08-24T16:36:28Z</time>
      </trkpt>
      <trkpt lat="43.9898" lon="0.15654">
        <ele>159</ele>
        <time>2004-08-24T16:36:28Z</time>
      </trkpt>
      <trkpt lat="43.98948" lon="0.15665">
        <ele>159</ele>
        <time>2004-08-24T16:36:28Z</time>
      </trkpt>
      <trkpt lat="43.98906" lon="0.15676">
        <ele>159</ele>
      </trkpt>
      <trkpt lat="43.9886" lon="0.15689">
        <ele>158</ele>
        <time>2004-08-24T16:36:28Z</time>
      </trkpt>
      <trkpt lat="43.98861" lon="0.15653">
        <ele>158</ele>
        <time>2004-08-24T16:36:28Z</time>
      </trkpt>
      <trkpt lat="43.98867" lon="0.1562">
        <ele>159</ele>
        <time>2004-08-24T16:36:28Z</time>
      </trkpt>
      <trkpt lat="43.98894" lon="0.15536">
        <ele>158</ele>
      </trkpt>
      <trkpt lat="43.98913" lon="0.15478">
        <ele>157</ele>
        <time>2004-08-24T16:36:28Z</time>
      </trkpt>
      <trkpt lat="43.98922" lon="0.15443">
        <ele>155</ele>
        <time>2004-08-24T16:36:28Z</time>
      </trkpt>
      <trkpt lat="43.9889" lon="0.15434">
        <ele>155</ele>
        <time>2004-08-24T16:36:28Z</time>
      </trkpt>
      <trkpt lat="43.98869" lon="0.1543">
        <ele>154</ele>
      </trkpt>
      <trkpt lat="43.98846" lon="0.15417">
        <ele>153</ele>
        <time>2004-08-24T16:36:28Z</time>
      </trkpt>
      <trkpt lat="43.98837" lon="0.15408">
        <ele>152</ele>
        <time>2004-08-24T16:36:28Z</time>
      </trkpt>
      <trkpt lat="43.9883" lon="0.15395">
        <ele>152</ele>
        <time>2004-08-24T16:36:28Z</time>
      </trkpt>
      <trkpt lat="43.98819" lon="0.15365">
        <ele>151</ele>
        <time>2004-08-24T16:36:28Z</time>
      </trkpt>
      <trkpt lat="43.98808" lon="0.15353">
        <ele>152</ele>
        <time>2004-08-24T16:36:28Z</time>
      </trkpt>
      <trkpt lat="43.98791" lon="0.15344">
        <ele>151</ele>
      </trkpt>
      <trkpt lat="43.98761" lon="0.15334">
        <ele>152</ele>
        <time>2004-08-24T16:36:28Z</time>
      </trkpt>
      <trkpt lat="43.98749" lon="0.15328">
        <ele>152</ele>
      </trkpt>
      <trkpt lat="43.98701" lon="0.15315">
        <ele>149</ele>
        <time>2004-08-24T16:36:28Z</time>
      </trkpt>
      <trkpt lat="43.98684" lon="0.15309">
        <ele>150</ele>
      </trkpt>
      <trkpt lat="43.98666" lon="0.15297">
        <ele>151</ele>
        <time>2004-08-24T16:36:28Z</time>
      </trkpt>
      <trkpt lat="43.98658" lon="0.15274">
        <ele>151</ele>
        <time>2004-08-24T16:36:28Z</time>
      </trkpt>
      <trkpt lat="43.98645" lon="0.15248">
        <ele>153</ele>
        <time>2004-08-24T16:36:28Z</time>
      </trkpt>
      <trkpt lat="43.98608" lon="0.15245">
        <ele>157</ele>
      </trkpt>
      <trkpt lat="43.98565" lon="0.15239">
        <ele>159</ele>
      </trkpt>
      <trkpt lat="43.98503" lon="0.1523">
        <ele>157</ele>
      </trkpt>
      <trkpt lat="43.9844" lon="0.1522">
        <ele>156</ele>
      </trkpt>
      <trkpt lat="43.98413" lon="0.15215">
        <ele>156</ele>
        <time>2004-08-24T16:36:28Z</time>
      </trkpt>
      <trkpt lat="43.98371" lon="0.15211">
        <ele>157</ele>
        <time>2004-08-24T16:36:28Z</time>
      </trkpt>
      <trkpt lat="43.98343" lon="0.15209">
        <ele>157</ele>
        <time>2004-08-24T16:36:28Z</time>
      </trkpt>
      <trkpt lat="43.98302" lon="0.15181">
        <ele>155</ele>
        <time>2004-08-24T16:36:28Z</time>
      </trkpt>
      <trkpt lat="43.98301" lon="0.15154">
        <ele>155</ele>
        <time>2004-08-24T16:36:28Z</time>
      </trkpt>
      <trkpt lat="43.98302" lon="0.15128">
        <ele>155</ele>
        <time>2004-08-24T16:36:28Z</time>
      </trkpt>
      <trkpt lat="43.98303" lon="0.15089">
        <ele>155</ele>
      </trkpt>
      <trkpt lat="43.98288" lon="0.15082">
        <ele>155</ele>
      </trkpt>
      <trkpt lat="43.98238" lon="0.15054">
        <ele>152</ele>
      </trkpt>
      <trkpt lat="43.98188" lon="0.15028">
        <ele>152</ele>
        <time>2004-08-24T16:36:28Z</time>
      </trkpt>
      <trkpt lat="43.9815" lon="0.15007">
        <ele>153</ele>
      </trkpt>
      <trkpt lat="43.98131" lon="0.14996">
        <ele>154</ele>
      </trkpt>
      <trkpt lat="43.98103" lon="0.14978">
        <ele>155</ele>
      </trkpt>
      <trkpt lat="43.98061" lon="0.14955">
        <ele>156</ele>
      </trkpt>
      <trkpt lat="43.98018" lon="0.14928">
        <ele>156</ele>
        <time>2004-08-24T16:36:28Z</time>
      </trkpt>
      <trkpt lat="43.98008" lon="0.14962">
        <ele>157</ele>
        <time>2004-08-24T16:36:28Z</time>
      </trkpt>
      <trkpt lat="43.97986" lon="0.15008">
        <ele>158</ele>
        <time>2004-08-24T16:36:28Z</time>
      </trkpt>
      <trkpt lat="43.97962" lon="0.1505">
        <ele>158</ele>
        <time>2004-08-24T16:36:28Z</time>
      </trkpt>
      <trkpt lat="43.97946" lon="0.15085">
        <ele>158</ele>
        <time>2004-08-24T16:36:28Z</time>
      </trkpt>
      <trkpt lat="43.97924" lon="0.1513">
        <ele>158</ele>
      </trkpt>
      <trkpt lat="43.97908" lon="0.15162">
        <ele>157</ele>
      </trkpt>
      <trkpt lat="43.97896" lon="0.15192">
        <ele>157</ele>
      </trkpt>
      <trkpt lat="43.97873" lon="0.15144">
        <ele>160</ele>
      </trkpt>
      <trkpt lat="43.97859" lon="0.15115">
        <ele>161</ele>
      </trkpt>
      <trkpt lat="43.97848" lon="0.15128">
        <ele>161</ele>
      </trkpt>
      <trkpt lat="43.97812" lon="0.15103">
        <ele>161</ele>
      </trkpt>
      <trkpt lat="43.9775" lon="0.1506">
        <ele>161</ele>
      </trkpt>
      <trkpt lat="43.97763" lon="0.1499">
        <ele>161</ele>
        <time>2004-08-24T16:36:28Z</time>
      </trkpt>
      <trkpt lat="43.97772" lon="0.1493">
        <ele>161</ele>
        <time>2004-08-24T16:36:28Z</time>
      </trkpt>
      <trkpt lat="43.97778" lon="0.14882">
        <ele>161</ele>
        <time>2004-08-24T16:36:28Z</time>
      </trkpt>
      <trkpt lat="43.97783" lon="0.14839">
        <ele>160</ele>
      </trkpt>
      <trkpt lat="43.97828" lon="0.14768">
        <ele>161</ele>
      </trkpt>
      <trkpt lat="43.97855" lon="0.14726">
        <ele>161</ele>
        <time>2004-08-24T16:36:28Z</time>
      </trkpt>
      <trkpt lat="43.97822" lon="0.14685">
        <ele>161</ele>
        <time>2004-08-24T16:36:28Z</time>
      </trkpt>
      <trkpt lat="43.97839" lon="0.14635">
        <ele>161</ele>
        <time>2004-08-24T16:36:28Z</time>
      </trkpt>
      <trkpt lat="43.97846" lon="0.14593">
        <ele>161</ele>
        <time>2004-08-24T16:36:28Z</time>
      </trkpt>
      <trkpt lat="43.97851" lon="0.14569">
        <ele>161</ele>
        <time>2004-08-24T16:36:28Z</time>
      </trkpt>
      <trkpt lat="43.97864" lon="0.14534">
        <ele>161</ele>
        <time>2004-08-24T16:36:28Z</time>
      </trkpt>
      <trkpt lat="43.97858" lon="0.14474">
        <ele>161</ele>
      </trkpt>
      <trkpt lat="43.97852" lon="0.14424">
        <ele>160</ele>
        <time>2004-08-24T16:36:28Z</time>
      </trkpt>
      <trkpt lat="43.97853" lon="0.14387">
        <ele>160</ele>
        <time>2004-08-24T16:36:28Z</time>
      </trkpt>
      <trkpt lat="43.9786" lon="0.14312">
        <ele>159</ele>
      </trkpt>
      <trkpt lat="43.97864" lon="0.14248">
        <ele>158</ele>
        <time>2004-08-24T16:36:28Z</time>
      </trkpt>
      <trkpt lat="43.97869" lon="0.14196">
        <ele>159</ele>
        <time>2004-08-24T16:36:28Z</time>
      </trkpt>
      <trkpt lat="43.97879" lon="0.14162">
        <ele>159</ele>
        <time>2004-08-24T16:36:28Z</time>
      </trkpt>
      <trkpt lat="43.97899" lon="0.14094">
        <ele>158</ele>
      </trkpt>
      <trkpt lat="43.97915" lon="0.14039">
        <ele>159</ele>
      </trkpt>
      <trkpt lat="43.97946" lon="0.13935">
        <ele>158</ele>
      </trkpt>
      <trkpt lat="43.97967" lon="0.13862">
        <ele>158</ele>
        <time>2004-08-24T16:36:28Z</time>
      </trkpt>
      <trkpt lat="43.98014" lon="0.13873">
        <ele>158</ele>
        <time>2004-08-24T16:36:28Z</time>
      </trkpt>
      <trkpt lat="43.98043" lon="0.1388">
        <ele>157</ele>
        <time>2004-08-24T16:36:28Z</time>
      </trkpt>
      <trkpt lat="43.98101" lon="0.13891">
        <ele>156</ele>
      </trkpt>
      <trkpt lat="43.98144" lon="0.13899">
        <ele>156</ele>
      </trkpt>
      <trkpt lat="43.98186" lon="0.13908">
        <ele>156</ele>
      </trkpt>
      <trkpt lat="43.9827" lon="0.13927">
        <ele>154</ele>
        <time>2004-08-24T16:36:28Z</time>
      </trkpt>
      <trkpt lat="43.98329" lon="0.13951">
        <ele>146</ele>
      </trkpt>
      <trkpt lat="43.98367" lon="0.13964">
        <ele>143</ele>
      </trkpt>
      <trkpt lat="43.98387" lon="0.13972">
        <ele>141</ele>
        <time>2004-08-24T16:36:28Z</time>
      </trkpt>
      <trkpt lat="43.98436" lon="0.13991">
        <ele>137</ele>
        <time>2004-08-24T16:36:28Z</time>
      </trkpt>
      <trkpt lat="43.985" lon="0.14001">
        <ele>131</ele>
        <time>2004-08-24T16:36:28Z</time>
      </trkpt>
      <trkpt lat="43.98556" lon="0.14006">
        <ele>126</ele>
      </trkpt>
      <trkpt lat="43.98598" lon="0.14012">
        <ele>124</ele>
        <time>2004-08-24T16:36:28Z</time>
      </trkpt>
      <trkpt lat="43.9863" lon="0.14016">
        <ele>124</ele>
      </trkpt>
      <trkpt lat="43.98648" lon="0.14021">
        <ele>126</ele>
        <time>2004-08-24T16:36:28Z</time>
      </trkpt>
      <trkpt lat="43.98696" lon="0.14037">
        <ele>132</ele>
        <time>2004-08-24T16:36:28Z</time>
      </trkpt>
      <trkpt lat="43.9874" lon="0.14049">
        <ele>135</ele>
        <time>2004-08-24T16:36:28Z</time>
      </trkpt>
      <trkpt lat="43.98776" lon="0.14068">
        <ele>136</ele>
        <time>2004-08-24T16:36:28Z</time>
      </trkpt>
      <trkpt lat="43.98809" lon="0.14087">
        <ele>136</ele>
        <time>2004-08-24T16:36:28Z</time>
      </trkpt>
      <trkpt lat="43.98861" lon="0.141">
        <ele>136</ele>
        <time>2004-08-24T16:36:28Z</time>
      </trkpt>
      <trkpt lat="43.98911" lon="0.14111">
        <ele>136</ele>
        <time>2004-08-24T16:36:28Z</time>
      </trkpt>
      <trkpt lat="43.9896" lon="0.14118">
        <ele>136</ele>
      </trkpt>
      <trkpt lat="43.99002" lon="0.14123">
        <ele>135</ele>
        <time>2004-08-24T16:36:28Z</time>
      </trkpt>
      <trkpt lat="43.99074" lon="0.14131">
        <ele>133</ele>
      </trkpt>
      <trkpt lat="43.99132" lon="0.14138">
        <ele>133</ele>
        <time>2004-08-24T16:36:28Z</time>
      </trkpt>
      <trkpt lat="43.99192" lon="0.1415">
        <ele>133</ele>
        <time>2004-08-24T16:36:28Z</time>
      </trkpt>
      <trkpt lat="43.99248" lon="0.14152">
        <ele>133</ele>
        <time>2004-08-24T16:36:28Z</time>
      </trkpt>
      <trkpt lat="43.99273" lon="0.14153">
        <ele>133</ele>
        <time>2004-08-24T16:36:28Z</time>
      </trkpt>
      <trkpt lat="43.99304" lon="0.14152">
        <ele>133</ele>
        <time>2004-08-24T16:36:28Z</time>
      </trkpt>
      <trkpt lat="43.99301" lon="0.1423">
        <ele>133</ele>
      </trkpt>
      <trkpt lat="43.99298" lon="0.14328">
        <ele>133</ele>
      </trkpt>
      <trkpt lat="43.99293" lon="0.14409">
        <ele>134</ele>
      </trkpt>
      <trkpt lat="43.99291" lon="0.14434">
        <ele>135</ele>
        <time>2004-08-24T16:36:28Z</time>
      </trkpt>
      <trkpt lat="43.99286" lon="0.14465">
        <ele>135</ele>
        <time>2004-08-24T16:36:28Z</time>
      </trkpt>
      <trkpt lat="43.99258" lon="0.1456">
        <ele>137</ele>
      </trkpt>
      <trkpt lat="43.99219" lon="0.1468">
        <ele>143</ele>
        <time>2004-08-24T16:36:28Z</time>
      </trkpt>
      <trkpt lat="43.99208" lon="0.14721">
        <ele>148</ele>
        <time>2004-08-24T16:36:28Z</time>
      </trkpt>
      <trkpt lat="43.99202" lon="0.14757">
        <ele>151</ele>
        <time>2004-08-24T16:36:28Z</time>
      </trkpt>
      <trkpt lat="43.99187" lon="0.1483">
        <ele>154</ele>
      </trkpt>
      <trkpt lat="43.99171" lon="0.14903">
        <ele>154</ele>
      </trkpt>
      <trkpt lat="43.9916" lon="0.14958">
        <ele>155</ele>
      </trkpt>
      <trkpt lat="43.99145" lon="0.1503">
        <ele>157</ele>
      </trkpt>
      <trkpt lat="43.99121" lon="0.15138">
        <ele>159</ele>
        <time>2004-08-24T16:36:28Z</time>
      </trkpt>
      <trkpt lat="43.99179" lon="0.1517">
        <ele>158</ele>
      </trkpt>
      <trkpt lat="43.99224" lon="0.15198">
        <ele>157</ele>
        <time>2004-08-24T16:36:28Z</time>
      </trkpt>
      <trkpt lat="43.99208" lon="0.15258">
        <ele>158</ele>
      </trkpt>
      <trkpt lat="43.99193" lon="0.1531">
        <ele>158</ele>
      </trkpt>
      <trkpt lat="43.99185" lon="0.15344">
        <ele>157</ele>
      </trkpt>
      <trkpt lat="43.99171" lon="0.15395">
        <ele>155</ele>
      </trkpt>
      <trkpt lat="43.99217" lon="0.15416">
        <ele>154</ele>
      </trkpt>
      <trkpt lat="43.99239" lon="0.15426">
        <ele>154</ele>
      </trkpt>
      <trkpt lat="43.99284" lon="0.15437">
        <ele>152</ele>
      </trkpt>
      <trkpt lat="43.99327" lon="0.15432">
        <ele>151</ele>
      </trkpt>
      <trkpt lat="43.99371" lon="0.15426">
        <ele>151</ele>
      </trkpt>
      <trkpt lat="43.99408" lon="0.15429">
        <ele>151</ele>
      </trkpt>
      <trkpt lat="43.99448" lon="0.1544">
        <ele>151</ele>
      </trkpt>
      <trkpt lat="43.99476" lon="0.1545">
        <ele>150</ele>
        <time>2004-08-24T16:36:28Z</time>
      </trkpt>
      <trkpt lat="43.9949" lon="0.15406">
        <ele>151</ele>
      </trkpt>
      <trkpt lat="43.995" lon="0.15357">
        <ele>150</ele>
        <time>2004-08-24T16:36:28Z</time>
      </trkpt>
      <trkpt lat="43.99519" lon="0.15369">
        <ele>149</ele>
      </trkpt>
      <trkpt lat="43.99551" lon="0.15389">
        <ele>149</ele>
      </trkpt>
      <trkpt lat="43.9959" lon="0.1541">
        <ele>150</ele>
        <time>2004-08-24T16:36:28Z</time>
      </trkpt>
      <trkpt lat="43.99616" lon="0.1542">
        <ele>150</ele>
        <time>2004-08-24T16:36:28Z</time>
      </trkpt>
      <trkpt lat="43.99651" lon="0.15425">
        <ele>151</ele>
      </trkpt>
      <trkpt lat="43.99721" lon="0.15433">
        <ele>149</ele>
      </trkpt>
      <trkpt lat="43.99783" lon="0.1544">
        <ele>146</ele>
      </trkpt>
      <trkpt lat="43.99837" lon="0.15447">
        <ele>145</ele>
      </trkpt>
      <trkpt lat="43.99879" lon="0.15453">
        <ele>144</ele>
      </trkpt>
      <trkpt lat="43.99926" lon="0.15459">
        <ele>144</ele>
        <time>2004-08-24T16:36:28Z</time>
      </trkpt>
      <trkpt lat="43.99981" lon="0.15471">
        <ele>143</ele>
      </trkpt>
      <trkpt lat="44.00026" lon="0.15479">
        <ele>144</ele>
        <time>2004-08-24T16:36:28Z</time>
      </trkpt>
      <trkpt lat="44.00059" lon="0.15474">
        <ele>146</ele>
        <time>2004-08-24T16:36:28Z</time>
      </trkpt>
      <trkpt lat="44.00077" lon="0.15466">
        <ele>146</ele>
        <time>2004-08-24T16:36:28Z</time>
      </trkpt>
      <trkpt lat="44.00106" lon="0.15441">
        <ele>148</ele>
      </trkpt>
      <trkpt lat="44.00135" lon="0.15415">
        <ele>149</ele>
        <time>2004-08-24T16:36:28Z</time>
      </trkpt>
      <trkpt lat="44.00173" lon="0.15384">
        <ele>150</ele>
      </trkpt>
      <trkpt lat="44.00202" lon="0.15358">
        <ele>151</ele>
      </trkpt>
      <trkpt lat="44.00248" lon="0.15316">
        <ele>153</ele>
        <time>2004-08-24T16:36:28Z</time>
      </trkpt>
      <trkpt lat="44.00284" lon="0.15283">
        <ele>154</ele>
      </trkpt>
      <trkpt lat="44.0031" lon="0.15259">
        <ele>155</ele>
        <time>2004-08-24T16:36:28Z</time>
      </trkpt>
      <trkpt lat="44.00312" lon="0.15229">
        <ele>155</ele>
        <time>2004-08-24T16:36:28Z</time>
      </trkpt>
      <trkpt lat="44.00334" lon="0.15208">
        <ele>155</ele>
        <time>2004-08-24T16:36:28Z</time>
      </trkpt>
      <trkpt lat="44.00314" lon="0.15198">
        <ele>155</ele>
      </trkpt>
      <trkpt lat="44.00291" lon="0.15188">
        <ele>155</ele>
      </trkpt>
      <trkpt lat="44.00267" lon="0.15177">
        <ele>155</ele>
      </trkpt>
      <trkpt lat="44.00235" lon="0.15162">
        <ele>152</ele>
      </trkpt>
      <trkpt lat="44.00218" lon="0.15153">
        <ele>150</ele>
        <time>2004-08-24T16:36:28Z</time>
      </trkpt>
      <trkpt lat="44.00217" lon="0.15087">
        <ele>148</ele>
        <time>2004-08-24T16:36:28Z</time>
      </trkpt>
      <trkpt lat="44.0022" lon="0.15034">
        <ele>147</ele>
      </trkpt>
      <trkpt lat="44.00219" lon="0.1496">
        <ele>144</ele>
        <time>2004-08-24T16:36:28Z</time>
      </trkpt>
      <trkpt lat="44.00226" lon="0.14896">
        <ele>142</ele>
        <time>2004-08-24T16:36:28Z</time>
      </trkpt>
      <trkpt lat="44.00238" lon="0.14824">
        <ele>139</ele>
        <time>2004-08-24T16:36:28Z</time>
      </trkpt>
      <trkpt lat="44.00256" lon="0.14777">
        <ele>138</ele>
        <time>2004-08-24T16:36:28Z</time>
      </trkpt>
      <trkpt lat="44.0027" lon="0.14739">
        <ele>138</ele>
      </trkpt>
      <trkpt lat="44.00291" lon="0.14696">
        <ele>137</ele>
        <time>2004-08-24T16:36:28Z</time>
      </trkpt>
      <trkpt lat="44.00313" lon="0.14659">
        <ele>137</ele>
        <time>2004-08-24T16:36:28Z</time>
      </trkpt>
      <trkpt lat="44.00326" lon="0.14638">
        <ele>137</ele>
      </trkpt>
      <trkpt lat="44.00345" lon="0.14658">
        <ele>138</ele>
      </trkpt>
      <trkpt lat="44.00367" lon="0.14696">
        <ele>140</ele>
      </trkpt>
      <trkpt lat="44.00391" lon="0.14745">
        <ele>145</ele>
      </trkpt>
      <trkpt lat="44.00417" lon="0.14783">
        <ele>148</ele>
        <time>2004-08-24T16:36:28Z</time>
      </trkpt>
      <trkpt lat="44.00443" lon="0.14787">
        <ele>147</ele>
        <time>2004-08-24T16:36:28Z</time>
      </trkpt>
      <trkpt lat="44.00471" lon="0.14764">
        <ele>145</ele>
        <time>2004-08-24T16:36:28Z</time>
      </trkpt>
      <trkpt lat="44.00503" lon="0.14734">
        <ele>145</ele>
        <time>2004-08-24T16:36:28Z</time>
      </trkpt>
      <trkpt lat="44.00528" lon="0.14713">
        <ele>147</ele>
      </trkpt>
      <trkpt lat="44.00543" lon="0.14702">
        <ele>148</ele>
      </trkpt>
      <trkpt lat="44.00542" lon="0.14688">
        <ele>148</ele>
        <time>2004-08-24T16:36:28Z</time>
      </trkpt>
      <trkpt lat="44.00581" lon="0.14703">
        <ele>151</ele>
        <time>2004-08-24T16:36:28Z</time>
      </trkpt>
      <trkpt lat="44.00654" lon="0.1473">
        <ele>154</ele>
        <time>2004-08-24T16:36:28Z</time>
      </trkpt>
      <trkpt lat="44.00673" lon="0.14743">
        <ele>154</ele>
        <time>2004-08-24T16:36:28Z</time>
      </trkpt>
      <trkpt lat="44.00721" lon="0.14788">
        <ele>156</ele>
        <time>2004-08-24T16:36:28Z</time>
      </trkpt>
      <trkpt lat="44.00739" lon="0.148">
        <ele>156</ele>
        <time>2004-08-24T16:36:28Z</time>
      </trkpt>
      <trkpt lat="44.00767" lon="0.14836">
        <ele>157</ele>
      </trkpt>
      <trkpt lat="44.00794" lon="0.14873">
        <ele>158</ele>
      </trkpt>
      <trkpt lat="44.00817" lon="0.14908">
        <ele>159</ele>
        <time>2004-08-24T16:36:28Z</time>
      </trkpt>
      <trkpt lat="44.00791" lon="0.1496">
        <ele>160</ele>
      </trkpt>
      <trkpt lat="44.00757" lon="0.15019">
        <ele>160</ele>
        <time>2004-08-24T16:36:28Z</time>
      </trkpt>
      <trkpt lat="44.00744" lon="0.15048">
        <ele>160</ele>
        <time>2004-08-24T16:36:28Z</time>
      </trkpt>
      <trkpt lat="44.00724" lon="0.15145">
        <ele>160</ele>
        <time>2004-08-24T16:36:28Z</time>
      </trkpt>
      <trkpt lat="44.00789" lon="0.15141">
        <ele>162</ele>
        <time>2004-08-24T16:36:28Z</time>
      </trkpt>
      <trkpt lat="44.00838" lon="0.15173">
        <ele>163</ele>
        <time>2004-08-24T16:36:28Z</time>
      </trkpt>
      <trkpt lat="44.0087" lon="0.15197">
        <ele>163</ele>
      </trkpt>
      <trkpt lat="44.00918" lon="0.15231">
        <ele>163</ele>
        <time>2004-08-24T16:36:28Z</time>
      </trkpt>
      <trkpt lat="44.00958" lon="0.15256">
        <ele>163</ele>
        <time>2004-08-24T16:36:28Z</time>
      </trkpt>
      <trkpt lat="44.01009" lon="0.15283">
        <ele>163</ele>
        <time>2004-08-24T16:36:28Z</time>
      </trkpt>
      <trkpt lat="44.01052" lon="0.15299">
        <ele>163</ele>
        <time>2004-08-24T16:36:28Z</time>
      </trkpt>
      <trkpt lat="44.01087" lon="0.15304">
        <ele>163</ele>
        <time>2004-08-24T16:36:28Z</time>
      </trkpt>
      <trkpt lat="44.01134" lon="0.15299">
        <ele>163</ele>
        <time>2004-08-24T16:36:28Z</time>
      </trkpt>
      <trkpt lat="44.01189" lon="0.15289">
        <ele>163</ele>
        <time>2004-08-24T16:36:28Z</time>
      </trkpt>
      <trkpt lat="44.01243" lon="0.15285">
        <ele>163</ele>
        <time>2004-08-24T16:36:28Z</time>
      </trkpt>
      <trkpt lat="44.01272" lon="0.15276">
        <ele>163</ele>
        <time>2004-08-24T16:36:28Z</time>
      </trkpt>
    </trkseg>
  </trk>
</gpx>